Regional Weather Roundup
Issued by NWS

Home | Current Version | Previous Version | Text Only | Print | Product List | Glossary On
Versions: 1 2 3 4 5 6 7 8 9 10 11 12 13 14 15 16 17 18 19 20 21 22 23 24 25 26 27 28 29 30 31 32 33 34 35 36 37 38 39 40 41 42 43 44 45 46 47 48 49 50
293
ASUS43 KTOP 291808
RWRKS

WEATHER ROUNDUP FOR KANSAS
NATIONAL WEATHER SERVICE GOODLAND KS
100 PM CDT SAT APR 29 2017

NOTE:  "FAIR" INDICATES FEW OR NO CLOUDS BELOW 12,000 FEET WITH NO
SIGNIFICANT WEATHER AND/OR OBSTRUCTIONS TO VISIBILITY.

KSZ001>006-013>018-027>032-041>047-291900-
NORTHWEST KANSAS

CITY           SKY/WX    TMP DP  RH WIND       PRES   REMARKS
GOODLAND       LGT SNOW  34  32  92 N23       30.06F VSB 1   WCI  22
6HR MIN TEMP:  32; 6HR MAX TEMP:  33; 6HR PCP:  0.14;

HAYS           CLOUDY    40  38  93 N28G37    29.91F WCI  29
HILL CITY      LGT RAIN  40  36  86 N22G33    30.01S WCI  30
6HR MIN TEMP:  35; 6HR MAX TEMP:  40; 6HR PCP:  0.11;

RUSSELL        LGT RAIN  41  39  93 N24G35    29.87F
6HR MIN TEMP:  39; 6HR MAX TEMP:  41; 6HR PCP:  0.10;

$$

KSZ061>065-074>080-084>089-291900-
SOUTHWEST KANSAS

CITY           SKY/WX    TMP DP  RH WIND       PRES   REMARKS
DODGE CITY     LGT RAIN  39  38  96 N28G35    29.87S FOG     WCI  28
6HR MIN TEMP:  34; 6HR MAX TEMP:  39; 6HR PCP:  0.22;

ELKHART          N/A     32  30  92 N20         N/A  WCI  20
GARDEN CITY    LGT RAIN  34  31  88 N32G41    29.92F WCI  20
6HR MIN TEMP:  32; 6HR MAX TEMP:  34; 6HR PCP:  0.04;

GREAT BEND     LGT RAIN  41  40  96 N21G32    29.86S FOG
LIBERAL        MIX PCPN  35  34  96 N30G39    29.89F FOG     WCI  22
PRATT          LGT RAIN  40  39  96 N20G30    29.82R WCI  31
6HR MIN TEMP:  37; 6HR MAX TEMP:  40; 6HR PCP:  0.41;

$$

KSZ066>073-081>083-090>101-291900-
SOUTHEAST KANSAS

CITY           SKY/WX    TMP DP  RH WIND       PRES   REMARKS
CHANUTE        TSTM      51  49  92 NE21G29   29.72F FOG
6HR MIN TEMP:  49; 6HR MAX TEMP:  52; 6HR PCP:  0.96;

COFFEYVILLE    LGT RAIN  52  51  97 N16G22    29.72F
6HR MIN TEMP:  52; 6HR MAX TEMP:  53; 6HR PCP:  0.70;

HUTCHINSON     CLOUDY    44  42  93 N18G33    29.75F
6HR MIN TEMP:  41; 6HR MAX TEMP:  44; 6HR PCP:  0.50;

MEDICINE LODGE   N/A     44  41  89 N16G28    29.77R
NEWTON         CLOUDY    44  43  96 N26G40    29.66F
PARSONS        LGT RAIN  52  50  93 N14G25    29.72F
6HR MIN TEMP:  50; 6HR MAX TEMP:  56; 6HR PCP:  0.77;

WICHITA INTL   CLOUDY    47  45  93 N9G20     29.74R
6HR MIN TEMP:  44; 6HR MAX TEMP:  47; 6HR PCP:  0.92;

WICHITA JABRA  CLOUDY    47  46  97 N17G30    29.64F
6HR MIN TEMP:  43; 6HR MAX TEMP:  47; 6HR PCP:  0.56;

WICHITA MCCONL CLOUDY    48  46  93 SW7       29.74R
WINFIELD       CLOUDY    52  49  89 E17G28    29.64R
6HR MIN TEMP:  45; 6HR MAX TEMP:  52; 6HR PCP:  0.81;

$$

KSZ007>012-019>026-033>040-048>060-102>105-291900-
NORTHEAST KANSAS

CITY           SKY/WX    TMP DP  RH WIND       PRES   REMARKS
CONCORDIA      LGT RAIN  42  41  96 NE23G36   29.88F
6HR MIN TEMP:  40; 6HR MAX TEMP:  42; 6HR PCP:  0.21;

EMPORIA        RAIN      47  47 100 E12       29.85S FOG
6HR MIN TEMP:  44; 6HR MAX TEMP:  47; 6HR PCP:  0.76;

LAWRENCE       LGT RAIN  48  47  96 NE13G18   29.87R FOG
6HR MIN TEMP:  46; 6HR MAX TEMP:  49; 6HR PCP:  0.84;

MANHATTAN      RAIN      46  46 100 NE17      29.93R FOG
6HR MIN TEMP:  44; 6HR MAX TEMP:  46; 6HR PCP:  0.31;

MARYSVILLE     RAIN      43  41  93 NE17G25   29.96F
OLATHE IND     LGT RAIN  48  47  96 NE14G23   29.88R FOG
6HR MIN TEMP:  46; 6HR MAX TEMP:  48; 6HR PCP:  0.89;

OLATHE EXE     LGT RAIN  48  48 100 NE13      29.87R FOG
6HR MIN TEMP:  45; 6HR MAX TEMP:  47; 6HR PCP:  0.89;

SALINA         LGT RAIN  45  42  89 NE21G29   29.86F
6HR MIN TEMP:  44; 6HR MAX TEMP:  45; 6HR PCP:  0.25;

TOPEKA BILLARD LGT RAIN  48  47  96 NE8       29.90R
6HR MIN TEMP:  45; 6HR MAX TEMP:  48; 6HR PCP:  0.66;

TOPEKA FORBES  LGT RAIN  48  47  96 NE8       29.89R
6HR MIN TEMP:  46; 6HR MAX TEMP:  48; 6HR PCP:  0.64;

$$




USA.gov is the U.S. government's official web portal to all federal, state and local government web resources and services.